FW4803 Weather Reports


Display with metric or nautical units.
time (UTC)temp
F
wind
direction
speed
MPH
gust
MPH
rain 1hr
in
rain 24hr
in
rain mn
in
humidity
%
barometer
mb
20260507183513 65 155 1.0 2.0 0.00 0.00 0.00 45 1018.8
20260507183012 65 118 1.0 4.0 0.00 0.00 0.00 46 1018.8
20260507182513 65 108 3.0 6.0 0.00 0.00 0.00 45 1018.8
20260507182013 65 98 5.0 6.0 0.00 0.00 0.00 45 1018.7
20260507181513 65 98 4.0 5.0 0.00 0.00 0.00 46 1018.6
20260507181012 65 111 4.0 4.0 0.00 0.00 0.00 47 1018.5
20260507180513 65 129 4.0 4.0 0.00 0.00 0.00 47 1018.7
20260507180013 65 123 4.0 5.0 0.00 0.00 0.00 48 1018.6
20260507175513 65 92 5.0 5.0 0.00 0.00 0.00 48 1018.6
20260507174513 65 78 5.0 5.0 0.00 0.00 0.00 48 1018.7
20260507174013 66 42 5.0 5.0 0.00 0.00 0.00 48 1018.6
20260507173013 66 99 4.0 6.0 0.00 0.00 0.00 47 1018.9
20260507172512 66 107 5.0 7.0 0.00 0.00 0.00 46 1018.7
20260507172013 67 101 6.0 7.0 0.00 0.00 0.00 46 1018.7
20260507171013 67 171 5.0 7.0 0.00 0.00 0.00 44 1018.5
20260507170512 67 95 6.0 8.0 0.00 0.00 0.00 44 1018.5
20260507170016 67 98 5.0 8.0 0.00 0.00 0.00 43 1018.4
20260507165513 68 111 6.0 8.0 0.00 0.00 0.00 43 1018.4
20260507165012 68 110 7.0 8.0 0.00 0.00 0.00 43 1018.2
20260507164512 68 97 7.0 10.0 0.00 0.00 0.00 43 1018.0
20260507164013 69 68 8.0 10.0 0.00 0.00 0.00 42 1018.2
20260507163512 69 41 7.0 11.0 0.00 0.00 0.00 42 1018.2
20260507163013 70 97 6.0 11.0 0.00 0.00 0.00 39 1018.3
20260507162512 70 132 5.0 8.0 0.00 0.00 0.00 36 1018.3
20260507162012 71 178 3.0 5.0 0.00 0.00 0.00 27 1018.4
20260507161513 71 205 3.0 5.0 0.00 0.00 0.00 24 1018.3
20260507161012 71 259 3.0 3.0 0.00 0.00 0.00 25 1018.4
20260507160513 71 250 3.0 4.0 0.00 0.00 0.00 25 1018.5
20260507155512 71 182 4.0 5.0 0.00 0.00 0.00 23 1018.3
20260507155013 71 210 5.0 8.0 0.00 0.00 0.00 23 1018.4
20260507154512 72 215 5.0 8.0 0.00 0.00 0.00 23 1018.4
20260507154012 72 204 5.0 7.0 0.00 0.00 0.00 23 1018.6
20260507153512 72 257 5.0 7.0 0.00 0.00 0.00 24 1018.5
20260507152013 72 200 6.0 9.0 0.00 0.00 0.00 23 1018.7
20260507151512 72 196 8.0 11.0 0.00 0.00 0.00 24 1018.7
20260507151012 72 221 8.0 11.0 0.00 0.00 0.00 22 1018.7
20260507150512 73 254 6.0 8.0 0.00 0.00 0.00 23 1018.8
20260507150012 73 255 5.0 8.0 0.00 0.00 0.00 23 1018.7
20260507145013 73 182 6.0 9.0 0.00 0.00 0.00 23 1018.5
20260507144512 73 227 6.0 9.0 0.00 0.00 0.00 23 1018.6
20260507144016 73 268 5.0 6.0 0.00 0.00 0.00 22 1018.7
20260507143012 73 237 6.0 10.0 0.00 0.00 0.00 23 1018.6
20260507142513 74 257 7.0 10.0 0.00 0.00 0.00 22 1018.6
20260507142012 74 265 8.0 11.0 0.00 0.00 0.00 22 1018.5
20260507141012 74 217 8.0 11.0 0.00 0.00 0.00 22 1018.3
20260507140513 75 222 6.0 7.0 0.00 0.00 0.00 22 1018.2
20260507140016 75 192 6.0 8.0 0.00 0.00 0.00 22 1018.2
20260507134512 76 221 6.0 9.0 0.00 0.00 0.00 17 1017.9
20260507134012 75 235 6.0 8.0 0.00 0.00 0.00 17 1017.9
20260507133512 75 154 7.0 8.0 0.00 0.00 0.00 22 1017.8
20260507133012 74 156 7.0 11.0 0.00 0.00 0.00 22 1017.9
20260507132513 74 165 7.0 11.0 0.00 0.00 0.00 23 1017.8
20260507132012 74 173 7.0 10.0 0.00 0.00 0.00 23 1017.9
20260507131512 74 186 7.0 9.0 0.00 0.00 0.00 23 1017.9
20260507131013 74 164 7.0 9.0 0.00 0.00 0.00 23 1017.9
20260507130512 74 152 6.0 9.0 0.00 0.00 0.00 26 1018.0
20260507130013 73 241 5.0 7.0 0.00 0.00 0.00 32 1018.1
20260507125012 73 201 6.0 8.0 0.00 0.00 0.00 32 1018.3
20260507124512 74 179 6.0 8.0 0.00 0.00 0.00 31 1018.3
20260507123516 74 202 8.0 10.0 0.00 0.00 0.00 28 1018.3
20260507122512 76 202 7.0 10.0 0.00 0.00 0.00 29 1018.5
20260507121512 76 204 8.0 11.0 0.00 0.00 0.00 28 1018.5
20260507121014 76 209 8.0 11.0 0.00 0.00 0.00 22 1018.4
20260507120512 76 238 8.0 11.0 0.00 0.00 0.00 24 1018.5
20260507120012 76 233 8.0 11.0 0.00 0.00 0.00 22 1018.4
20260507115014 75 175 8.0 12.0 0.00 0.00 0.00 22 1018.5
20260507114012 75 275 8.0 11.0 0.00 0.00 0.00 32 1018.5
20260507113512 75 272 8.0 11.0 0.00 0.00 0.00 31 1018.4
20260507113012 75 230 7.0 10.0 0.00 0.00 0.00 32 1018.3
20260507112512 74 279 8.0 10.0 0.00 0.00 0.00 38 1018.5
20260507112012 75 287 7.0 8.0 0.00 0.00 0.00 37 1018.7
20260507111512 75 234 7.0 11.0 0.00 0.00 0.00 42 1018.6
20260507111012 75 248 8.0 11.0 0.00 0.00 0.00 43 1018.4
20260507110512 75 277 8.0 11.0 0.00 0.00 0.00 45 1018.4
20260507110012 75 234 7.0 9.0 0.00 0.00 0.00 46 1018.3
20260507105513 75 253 8.0 10.0 0.00 0.00 0.00 43 1018.4
20260507105012 75 259 8.0 10.0 0.00 0.00 0.00 42 1018.5
20260507104512 76 223 8.0 10.0 0.00 0.00 0.00 39 1018.4
20260507103512 75 276 7.0 9.0 0.00 0.00 0.00 38 1018.1
20260507103012 75 269 6.0 11.0 0.00 0.00 0.00 41 1018.0
20260507102521 75 225 7.0 11.0 0.00 0.00 0.00 42 1018.0
20260507101512 75 229 7.0 8.0 0.00 0.00 0.00 42 1018.1
20260507101012 75 250 6.0 8.0 0.00 0.00 0.00 41 1018.1
20260507100512 75 268 5.0 6.0 0.00 0.00 0.00 40 1018.1
20260507100012 75 254 5.0 6.0 0.00 0.00 0.00 42 1018.2
20260507095512 74 239 5.0 6.0 0.00 0.00 0.00 42 1018.2
20260507094512 74 243 5.0 8.0 0.00 0.00 0.00 42 1018.1
20260507094012 74 260 6.0 8.0 0.00 0.00 0.00 42 1018.1
20260507093013 75 250 5.0 7.0 0.00 0.00 0.00 41 1018.1
20260507091513 74 227 5.0 8.0 0.00 0.00 0.00 41 1018.1
20260507091011 74 242 5.0 7.0 0.00 0.00 0.00 41 1017.9
20260507090512 74 235 5.0 7.0 0.00 0.00 0.00 42 1018.0
20260507090012 74 209 4.0 5.0 0.00 0.00 0.00 42 1017.8
20260507085512 73 209 4.0 5.0 0.00 0.00 0.00 41 1018.0
20260507083012 72 107 3.0 4.0 0.00 0.00 0.00 40 1018.2
20260507082512 72 177 3.0 4.0 0.00 0.00 0.00 43 1018.1
20260507082011 72 198 4.0 5.0 0.00 0.00 0.00 43 1018.1
20260507081513 72 191 5.0 6.0 0.00 0.00 0.00 43 1018.1
20260507081011 72 196 4.0 6.0 0.00 0.00 0.00 43 1018.1
20260507080512 72 202 4.0 7.0 0.00 0.00 0.00 41 1018.0
20260507080012 72 212 4.0 7.0 0.00 0.00 0.00 39 1018.2
20260507075012 71 150 4.0 5.0 0.00 0.00 0.00 40 1018.0
20260507074511 71 133 5.0 6.0 0.00 0.00 0.00 41 1018.0
20260507074012 71 131 6.0 8.0 0.00 0.00 0.00 42 1017.8
20260507073012 70 161 6.0 8.0 0.00 0.00 0.00 42 1017.8
20260507072512 71 185 5.0 8.0 0.00 0.00 0.00 44 1017.7
20260507072011 70 195 4.0 6.0 0.00 0.00 0.00 48 1017.8
20260507071012 70 159 5.0 7.0 0.00 0.00 0.00 49 1017.9
20260507070511 69 159 6.0 7.0 0.00 0.00 0.00 49 1017.9
20260507070014 69 134 7.0 8.0 0.00 0.00 0.00 49 1018.1
20260507065511 68 127 8.0 8.0 0.00 0.00 0.00 49 1018.0
20260507065012 68 125 8.0 10.0 0.00 0.00 0.00 48 1018.0
20260507064512 68 121 8.0 10.0 0.00 0.00 0.00 47 1018.0
20260507064012 69 142 8.0 11.0 0.00 0.00 0.00 47 1017.9
20260507063511 68 160 9.0 11.0 0.00 0.00 0.00 46 1017.9
20260507063012 68 160 9.0 11.0 0.00 0.00 0.00 44 1017.8
20260507062512 68 158 8.0 11.0 0.00 0.00 0.00 43 1017.9
20260507062012 69 154 6.0 8.0 0.00 0.00 0.00 44 1017.7
20260507061011 68 157 5.0 7.0 0.00 0.00 0.00 45 1017.8
20260507060012 68 131 4.0 5.0 0.00 0.00 0.00 44 1017.6
20260507055511 68 102 4.0 4.0 0.00 0.00 0.00 43 1017.3
20260507055011 67 102 4.0 4.0 0.00 0.00 0.00 44 1017.4
20260507054513 68 99 3.0 4.0 0.00 0.00 0.00 44 1017.2
20260507054011 67 98 3.0 4.0 0.00 0.00 0.00 43 1017.2
20260507053514 67 121 3.0 3.0 0.00 0.00 0.00 45 1017.1
20260507053013 67 125 3.0 3.0 0.00 0.00 0.00 45 1017.1
20260507052514 67 127 2.0 3.0 0.00 0.00 0.00 49 1016.9
20260507052011 66 63 1.0 2.0 0.00 0.00 0.00 47 1017.1
20260507050512 65 352 2.0 3.0 0.00 0.00 0.00 54 1017.0
20260507050012 65 346 2.0 3.0 0.00 0.00 0.00 54 1017.0
20260507045512 65 354 0.0 2.0 0.00 0.00 0.00 49 1017.0
20260507044012 63 3 1.0 2.0 0.00 0.00 0.00 54 1017.0
20260507043512 63 2 1.0 2.0 0.00 0.00 0.00 56 1016.9
20260507043012 63 1 2.0 2.0 0.00 0.00 0.00 57 1016.9
20260507042512 62 348 2.0 2.0 0.00 0.00 0.00 56 1016.8
20260507042011 62 338 2.0 2.0 0.00 0.00 0.00 56 1016.8
20260507041512 62 333 2.0 2.0 0.00 0.00 0.00 58 1017.0
20260507041011 62 323 2.0 2.0 0.00 0.00 0.00 59 1017.2
20260507040511 61 324 1.0 2.0 0.00 0.00 0.00 62 1017.0
20260507035512 60 1 2.0 3.0 0.00 0.00 0.00 62 1016.9
20260507035011 60 357 2.0 3.0 0.00 0.00 0.00 62 1016.9
20260507034512 60 349 2.0 2.0 0.00 0.00 0.00 63 1017.1
20260507034012 60 344 2.0 3.0 0.00 0.00 0.00 63 1017.0
20260507033511 60 351 2.0 3.0 0.00 0.00 0.00 62 1017.0
20260507032511 60 1 0.0 2.0 0.00 0.00 0.00 62 1016.7
20260507032011 60 0 0.0 0.0 0.00 0.00 0.00 61 1016.7
20260507031512 60 0 0.0 0.0 0.00 0.00 0.00 61 1016.8
20260507031011 60 45 0.0 2.0 0.00 0.00 0.00 61 1016.8
20260507030512 60 43 1.0 2.0 0.00 0.00 0.00 62 1016.8
20260507030011 59 77 1.0 2.0 0.00 0.00 0.00 62 1016.8
20260507025511 59 81 2.0 2.0 0.00 0.00 0.00 62 1016.7
20260507025012 59 78 2.0 2.0 0.00 0.00 0.00 62 1016.8
20260507024511 59 80 1.0 2.0 0.00 0.00 0.00 62 1016.6
20260507024012 59 75 2.0 2.0 0.00 0.00 0.00 62 1016.7
20260507023511 59 80 3.0 3.0 0.00 0.00 0.00 62 1016.7
20260507023011 59 88 3.0 3.0 0.00 0.00 0.00 62 1016.7
20260507022511 59 107 3.0 4.0 0.00 0.00 0.00 62 1016.6
20260507022011 59 122 3.0 4.0 0.00 0.00 0.00 62 1016.7
20260507021513 59 119 3.0 4.0 0.00 0.00 0.00 62 1016.6
20260507021011 59 120 3.0 4.0 0.00 0.00 0.00 62 1016.7
20260507020512 59 145 3.0 4.0 0.00 0.00 0.00 61 1016.6
20260507020012 60 160 2.0 3.0 0.00 0.00 0.00 62 1016.5
20260507015011 61 160 2.0 3.0 0.00 0.00 0.00 60 1016.5
20260507014511 61 175 1.0 2.0 0.00 0.00 0.00 56 1016.4
20260507014012 62 255 1.0 2.0 0.00 0.00 0.00 55 1016.4
20260507013511 62 256 1.0 2.0 0.00 0.00 0.00 55 1016.3
20260507013011 62 246 0.0 2.0 0.00 0.00 0.00 55 1016.2
20260507012512 62 0 0.0 0.0 0.00 0.00 0.00 55 1016.1
20260507012011 62 0 0.0 0.0 0.00 0.00 0.00 55 1016.0
20260507011512 61 0 0.0 0.0 0.00 0.00 0.00 56 1015.9
20260507011011 61 135 0.0 1.0 0.00 0.00 0.00 56 1015.7
20260507010511 61 74 1.0 2.0 0.00 0.00 0.00 56 1015.9
20260507010012 61 42 1.0 3.0 0.00 0.00 0.00 56 1015.8
20260507005511 61 86 2.0 3.0 0.00 0.00 0.00 57 1015.8
20260507005011 61 132 1.0 3.0 0.00 0.00 0.00 57 1016.0
20260507004511 62 0 0.0 0.0 0.00 0.00 0.00 57 1015.9
20260507004012 62 0 0.0 0.0 0.00 0.00 0.00 56 1015.9
20260507003511 62 0 0.0 0.0 0.00 0.00 0.00 56 1015.9
20260507003011 62 0 0.0 0.0 0.00 0.00 0.00 56 1015.8
20260507002511 62 0 0.0 0.0 0.00 0.00 0.00 56 1015.8
20260507002011 62 0 0.0 0.0 0.00 0.00 0.00 56 1015.9
20260507001011 62 0 0.0 0.0 0.00 0.00 0.00 56 1016.0
20260507000512 62 56 0.0 2.0 0.00 0.00 0.00 56 1016.2
20260507000012 62 58 1.0 2.0 0.00 0.00 0.00 56 1016.1
20260506235511 62 44 1.0 2.0 0.00 0.00 0.00 56 1016.2
20260506235011 62 34 1.0 2.0 0.00 0.00 0.00 55 1016.2
20260506234511 62 30 1.0 2.0 0.00 0.00 0.00 55 1016.3
20260506234011 62 18 1.0 2.0 0.00 0.00 0.00 55 1016.4
20260506233511 62 7 1.0 2.0 0.00 0.00 0.00 55 1016.5
20260506233012 62 325 1.0 2.0 0.00 0.00 0.00 55 1016.5
20260506232011 62 0 0.0 0.0 0.00 0.00 0.00 55 1016.6
20260506231511 63 0 0.0 0.0 0.00 0.00 0.00 54 1016.7
20260506231011 63 270 0.0 2.0 0.00 0.00 0.00 54 1016.6
20260506230512 63 245 1.0 2.0 0.00 0.00 0.00 53 1016.6
20260506230011 63 260 1.0 2.0 0.00 0.00 0.00 53 1016.6
20260506225511 63 270 1.0 2.0 0.00 0.00 0.00 53 1016.6
20260506225011 63 270 0.0 2.0 0.00 0.00 0.00 53 1016.7
20260506224511 63 270 0.0 1.0 0.00 0.00 0.00 53 1016.6
20260506224012 63 0 0.0 0.0 0.00 0.00 0.00 53 1016.7
20260506223012 63 351 1.0 2.0 0.00 0.00 0.00 53 1016.7
20260506222511 63 355 2.0 2.0 0.00 0.00 0.00 53 1016.8
20260506222011 63 348 2.0 2.0 0.00 0.00 0.00 53 1016.8
20260506221511 64 333 1.0 2.0 0.00 0.00 0.00 49 1016.8
20260506220511 64 108 1.0 2.0 0.00 0.00 0.00 47 1016.9
20260506220013 64 90 0.0 1.0 0.00 0.00 0.00 47 1016.9
20260506215511 64 0 0.0 0.0 0.00 0.00 0.00 47 1016.9
20260506215011 64 0 0.0 0.0 0.00 0.00 0.00 46 1016.9
20260506214011 64 0 0.0 0.0 0.00 0.00 0.00 46 1016.9
20260506213511 64 0 0.0 0.0 0.00 0.00 0.00 46 1017.1
20260506212511 65 0 0.0 0.0 0.00 0.00 0.00 44 1017.3
20260506212011 65 0 0.0 0.0 0.00 0.00 0.00 44 1017.1
20260506211511 65 189 0.0 1.0 0.00 0.00 0.00 44 1017.1
20260506210016 65 232 1.0 2.0 0.00 0.00 0.00 43 1017.4
20260506205511 65 229 2.0 2.0 0.00 0.00 0.00 43 1017.4
20260506205011 65 246 2.0 3.0 0.00 0.00 0.00 43 1017.4
20260506204011 65 243 3.0 3.0 0.00 0.00 0.00 42 1017.3
20260506203511 65 244 3.0 3.0 0.00 0.00 0.00 42 1017.4
20260506203011 65 258 3.0 3.0 0.00 0.00 0.00 42 1017.4
20260506202511 66 268 3.0 3.0 0.00 0.00 0.00 42 1017.4
20260506202013 66 262 2.0 3.0 0.00 0.00 0.00 42 1017.3
20260506200511 66 311 0.0 2.0 0.00 0.00 0.00 43 1017.2
20260506200011 66 307 1.0 2.0 0.00 0.00 0.00 43 1017.2
20260506195512 66 288 1.0 2.0 0.00 0.00 0.00 43 1017.1
20260506195011 66 324 2.0 2.0 0.00 0.00 0.00 43 1017.2
20260506194512 66 345 2.0 2.0 0.00 0.00 0.00 43 1017.0
20260506193511 66 315 2.0 2.0 0.00 0.00 0.00 43 1016.9
20260506193011 66 331 2.0 2.0 0.00 0.00 0.00 43 1016.9
20260506192513 66 323 2.0 3.0 0.00 0.00 0.00 43 1016.8
20260506190510 66 9 2.0 2.0 0.00 0.00 0.00 44 1016.6
20260506190012 66 353 2.0 2.0 0.00 0.00 0.00 43 1016.6
20260506185511 66 1 3.0 3.0 0.00 0.00 0.00 43 1016.4
20260506184511 67 342 2.0 3.0 0.00 0.00 0.00 43 1016.4